Regional Weather Roundup
Issued by NWS

Home | Current Version | Previous Version | Graphics & Text | Print | Product List | Glossary On
Versions: 1 2 3 4 5 6 7 8 9 10 11 12 13 14 15 16 17 18 19 20 21 22 23 24 25 26 27 28 29 30 31 32 33 34 35 36 37 38 39 40 41 42 43 44 45 46 47 48 49 50
459
ASUS45 KCYS 171410
RWRWY

WYOMING REGIONAL WEATHER ROUNDUP
NATIONAL WEATHER SERVICE CHEYENNE WY
700 AM MST TUE JAN 17 2017

NOTE:  "FAIR" INDICATES FEW OR NO CLOUDS BELOW 12,000 FEET
WITH NO SIGNIFICANT WEATHER AND/OR OBSTRUCTIONS TO VISIBILITY.

WYZ001-171500-
YELLOWSTONE NATIONAL PARK

CITY           SKY/WX    TMP DP  RH WIND       PRES   REMARKS
LK YELLOWSTONE   N/A    -13 -17  82 CALM      30.16R
W YELLOWSTONE  NOT AVBL

$$
WYZ002>013-054>058-071-098>099-171500-
NORTHERN WYOMING

CITY           SKY/WX    TMP DP  RH WIND       PRES   REMARKS
JACKSON        CLEAR     -6  -8  92 CALM      30.22S
CODY           NOT AVBL
GREYBULL       FAIR     -12 -18  74 CALM      30.07R
WORLAND        FAIR      -9 -12  87 N3        30.03F
SHERIDAN       FAIR       7  -1  70 S7        29.92R WCI  -5
BUFFALO        FAIR      30   3  31 SW10      29.92R WCI  21
GILLETTE       FAIR      10   4  76 CALM      29.93R
HULETT         FAIR      25  10  54 SW8       29.93S WCI  16
NEWCASTLE      FAIR      12   3  67 N7        30.00R WCI   2

$$
WYZ014>020-022>026-101>103-171500-
CENTRAL WYOMING

CITY           SKY/WX    TMP DP  RH WIND       PRES   REMARKS
BIG PINEY      FAIR     -19 -24  77 NE5       30.14R WCI -32
PINEDALE       FAIR     -18 -26  69 CALM      30.14R
DUBOIS         NOT AVBL
LANDER         FAIR       3   0  87 CALM      30.04S
RIVERTON       FOG       -6  -8  91 NE3       30.06S VSB 1/4
CASPER         FAIR      20   5  52 SW17      30.01R WCI   5
DOUGLAS        FAIR       5   0  79 CALM      30.00R

$$
WYZ021-027>030-104>119-171500-
SOUTHERN WYOMING

CITY           SKY/WX    TMP DP  RH WIND       PRES   REMARKS
EVANSTON       FAIR       5  -1  76 SE7       30.13F WCI  -7
ROCK SPRINGS   FAIR     -11 -16  78 S6        30.15R HAZE    WCI -25
RAWLINS        FAIR      -3  -8  79 CALM      30.13R
LARAMIE        FAIR      -8 -12  83 CALM      30.03S FOG
CHEYENNE       FAIR      13   7  77 SW7       30.01R WCI   3
TORRINGTON     FAIR      11   6  81 SE3       30.00F

$$




USA.gov is the U.S. government's official web portal to all federal, state and local government web resources and services.